Year,Month,Day,Hour,Minute,Value (Times are PST for temperature in C)
2020,11,29,00,00,1.60
2020,11,29,00,01,1.60
2020,11,29,00,02,1.70
2020,11,29,00,03,1.70
2020,11,29,00,04,1.70
2020,11,29,00,05,1.70
2020,11,29,00,06,1.70
2020,11,29,00,07,1.80
2020,11,29,00,08,1.80
2020,11,29,00,09,1.80
2020,11,29,00,10,1.80
2020,11,29,00,11,1.80
2020,11,29,00,12,1.80
2020,11,29,00,13,1.80
2020,11,29,00,14,1.80
2020,11,29,00,15,1.90
2020,11,29,00,16,1.90
2020,11,29,00,17,1.90
2020,11,29,00,18,1.90
2020,11,29,00,19,1.90
2020,11,29,00,20,1.90
2020,11,29,00,21,1.90
2020,11,29,00,22,2.00
2020,11,29,00,23,2.00
2020,11,29,00,24,2.10
2020,11,29,00,25,2.10
2020,11,29,00,26,2.10
2020,11,29,00,27,2.10
2020,11,29,00,28,2.20
2020,11,29,00,29,2.20
2020,11,29,00,30,2.20
2020,11,29,00,31,2.20
2020,11,29,00,32,2.20
2020,11,29,00,33,2.20
2020,11,29,00,34,2.30
2020,11,29,00,35,2.30
2020,11,29,00,36,2.30
2020,11,29,00,37,2.30
2020,11,29,00,38,2.30
2020,11,29,00,39,2.30
2020,11,29,00,40,2.30
2020,11,29,00,41,2.40
2020,11,29,00,42,2.40
2020,11,29,00,43,2.40
2020,11,29,00,44,2.40
2020,11,29,00,45,2.40
2020,11,29,00,46,2.40
2020,11,29,00,47,2.40
2020,11,29,00,48,2.50
2020,11,29,00,49,2.50
2020,11,29,00,50,2.50
2020,11,29,00,51,2.50
2020,11,29,00,52,2.60
2020,11,29,00,53,2.60
2020,11,29,00,54,2.60
2020,11,29,00,55,2.60
2020,11,29,00,56,2.60
2020,11,29,00,57,2.60
2020,11,29,00,58,2.60
2020,11,29,00,59,2.70
2020,11,29,01,00,2.70
2020,11,29,01,01,2.70
2020,11,29,01,02,2.70
2020,11,29,01,03,2.70
2020,11,29,01,04,2.70
2020,11,29,01,05,2.70
2020,11,29,01,06,2.80
2020,11,29,01,07,2.80
2020,11,29,01,08,2.80
2020,11,29,01,09,2.80
2020,11,29,01,10,2.80
2020,11,29,01,11,2.80
2020,11,29,01,12,2.80
2020,11,29,01,13,2.80
2020,11,29,01,14,2.80
2020,11,29,01,15,2.80
2020,11,29,01,16,2.80
2020,11,29,01,17,2.90
2020,11,29,01,18,2.90
2020,11,29,01,19,2.90
2020,11,29,01,20,2.90
2020,11,29,01,21,2.90
2020,11,29,01,22,2.90
2020,11,29,01,23,2.90
2020,11,29,01,24,2.90
2020,11,29,01,25,2.90
2020,11,29,01,26,2.90
2020,11,29,01,27,2.90
2020,11,29,01,28,2.90
2020,11,29,01,29,2.90
2020,11,29,01,30,2.90
2020,11,29,01,31,2.90
2020,11,29,01,32,2.90
2020,11,29,01,33,2.90
2020,11,29,01,34,2.90
2020,11,29,01,35,2.90
2020,11,29,01,36,3.00
2020,11,29,01,37,3.00
2020,11,29,01,38,2.90
2020,11,29,01,39,3.00
2020,11,29,01,40,2.90
2020,11,29,01,41,2.90
2020,11,29,01,42,2.90
2020,11,29,01,43,2.90
2020,11,29,01,44,2.90
2020,11,29,01,45,2.90
2020,11,29,01,46,2.90
2020,11,29,01,47,2.90
2020,11,29,01,48,2.90
2020,11,29,01,49,2.90
2020,11,29,01,50,2.90
2020,11,29,01,51,2.90
2020,11,29,01,52,2.80
2020,11,29,01,53,2.80
2020,11,29,01,54,2.80
2020,11,29,01,55,2.80
2020,11,29,01,56,2.80
2020,11,29,01,57,2.80
2020,11,29,01,58,2.80
2020,11,29,01,59,2.90
2020,11,29,02,00,2.90
2020,11,29,02,01,2.90
2020,11,29,02,02,2.90
2020,11,29,02,03,2.90
2020,11,29,02,04,2.90
2020,11,29,02,05,2.90
2020,11,29,02,06,2.90
2020,11,29,02,07,2.90
2020,11,29,02,08,2.80
2020,11,29,02,09,2.80
2020,11,29,02,10,2.80
2020,11,29,02,11,2.80
2020,11,29,02,12,2.80
2020,11,29,02,13,2.80
2020,11,29,02,14,2.80
2020,11,29,02,15,2.80
2020,11,29,02,16,2.80
2020,11,29,02,17,2.80
2020,11,29,02,18,2.80
2020,11,29,02,19,2.80
2020,11,29,02,20,2.80
2020,11,29,02,21,2.70
2020,11,29,02,22,2.70
2020,11,29,02,23,2.70
2020,11,29,02,24,2.70
2020,11,29,02,25,2.70
2020,11,29,02,26,2.70
2020,11,29,02,27,2.70
2020,11,29,02,28,2.70
2020,11,29,02,29,2.70
2020,11,29,02,30,2.70
2020,11,29,02,31,2.70
2020,11,29,02,32,2.70
2020,11,29,02,33,2.70
2020,11,29,02,34,2.70
2020,11,29,02,35,2.70
2020,11,29,02,36,2.80
2020,11,29,02,37,2.80
2020,11,29,02,38,2.80
2020,11,29,02,39,2.80
2020,11,29,02,40,2.80
2020,11,29,02,41,2.80
2020,11,29,02,42,2.80
2020,11,29,02,43,2.80
2020,11,29,02,44,2.80
2020,11,29,02,45,2.70
2020,11,29,02,46,2.70
2020,11,29,02,47,2.70
2020,11,29,02,48,2.70
2020,11,29,02,49,2.70
2020,11,29,02,50,2.70
2020,11,29,02,51,2.70
2020,11,29,02,52,2.70
2020,11,29,02,53,2.70
2020,11,29,02,54,2.70
2020,11,29,02,55,2.60
2020,11,29,02,56,2.60
2020,11,29,02,57,2.60
2020,11,29,02,58,2.60
2020,11,29,02,59,2.60
2020,11,29,03,00,2.50
2020,11,29,03,01,2.50
2020,11,29,03,02,2.50
2020,11,29,03,03,2.40
2020,11,29,03,04,2.40
2020,11,29,03,05,2.40
2020,11,29,03,06,2.30
2020,11,29,03,07,2.30
2020,11,29,03,08,2.30
2020,11,29,03,09,2.30
2020,11,29,03,10,2.30
2020,11,29,03,11,2.30
2020,11,29,03,12,2.30
2020,11,29,03,13,2.30
2020,11,29,03,14,2.30
2020,11,29,03,15,2.30
2020,11,29,03,16,2.30
2020,11,29,03,17,2.30
2020,11,29,03,18,2.30
2020,11,29,03,19,2.30
2020,11,29,03,20,2.30
2020,11,29,03,21,2.30
2020,11,29,03,22,2.30
2020,11,29,03,23,2.30
2020,11,29,03,24,2.30
2020,11,29,03,25,2.30
2020,11,29,03,26,2.30
2020,11,29,03,27,2.30
2020,11,29,03,28,2.40
2020,11,29,03,29,2.40
2020,11,29,03,30,2.40
2020,11,29,03,31,2.40
2020,11,29,03,32,2.40
2020,11,29,03,33,2.50
2020,11,29,03,34,2.50
2020,11,29,03,35,2.50
2020,11,29,03,36,2.60
2020,11,29,03,37,2.60
2020,11,29,03,38,2.60
2020,11,29,03,39,2.70
2020,11,29,03,40,2.70
2020,11,29,03,41,2.70
2020,11,29,03,42,2.70
2020,11,29,03,43,2.70
2020,11,29,03,44,2.80
2020,11,29,03,45,2.80
2020,11,29,03,46,2.80
2020,11,29,03,47,2.80
2020,11,29,03,48,2.90
2020,11,29,03,49,2.90
2020,11,29,03,50,2.90
2020,11,29,03,51,2.90
2020,11,29,03,52,3.00
2020,11,29,03,53,3.00
2020,11,29,03,54,3.10
2020,11,29,03,55,3.10
2020,11,29,03,56,3.10
2020,11,29,03,57,3.10
2020,11,29,03,58,3.10
2020,11,29,03,59,3.10
2020,11,29,04,00,3.10
2020,11,29,04,01,3.10
2020,11,29,04,02,3.20
2020,11,29,04,03,3.20
2020,11,29,04,04,3.20
2020,11,29,04,05,3.20
2020,11,29,04,06,3.20
2020,11,29,04,07,3.20
2020,11,29,04,08,3.20
2020,11,29,04,09,3.20
2020,11,29,04,10,3.20
2020,11,29,04,11,3.20
2020,11,29,04,12,3.20
2020,11,29,04,13,3.20
2020,11,29,04,14,3.20
2020,11,29,04,15,3.20
2020,11,29,04,16,3.20
2020,11,29,04,17,3.20
2020,11,29,04,18,3.20
2020,11,29,04,19,3.30
2020,11,29,04,20,3.30
2020,11,29,04,21,3.30
2020,11,29,04,22,3.30
2020,11,29,04,23,3.30
2020,11,29,04,24,3.30
2020,11,29,04,25,3.30
2020,11,29,04,26,3.30
2020,11,29,04,27,3.30
2020,11,29,04,28,3.30
2020,11,29,04,29,3.30
2020,11,29,04,30,3.30
2020,11,29,04,31,3.20
2020,11,29,04,32,3.20
2020,11,29,04,33,3.20
2020,11,29,04,34,3.20
2020,11,29,04,35,3.10
2020,11,29,04,36,3.10
2020,11,29,04,37,3.10
2020,11,29,04,38,3.10
2020,11,29,04,39,3.10
2020,11,29,04,40,3.10
2020,11,29,04,41,3.10
2020,11,29,04,42,3.10
2020,11,29,04,43,3.10
2020,11,29,04,44,3.10
2020,11,29,04,45,3.10
2020,11,29,04,46,3.10
2020,11,29,04,47,3.10
2020,11,29,04,48,3.10
2020,11,29,04,49,3.10
2020,11,29,04,50,3.10
2020,11,29,04,51,3.10
2020,11,29,04,52,3.10
2020,11,29,04,53,3.10
2020,11,29,04,54,3.10
2020,11,29,04,55,3.20
2020,11,29,04,56,3.20
2020,11,29,04,57,3.20
2020,11,29,04,58,3.20
2020,11,29,04,59,3.20
2020,11,29,05,00,3.20
2020,11,29,05,01,3.20
2020,11,29,05,02,3.20
2020,11,29,05,03,3.20
2020,11,29,05,04,3.20
2020,11,29,05,05,3.20
2020,11,29,05,06,3.20
2020,11,29,05,07,3.20
2020,11,29,05,08,3.20
2020,11,29,05,09,3.20
2020,11,29,05,10,3.20
2020,11,29,05,11,3.20
2020,11,29,05,12,3.20
2020,11,29,05,13,3.20
2020,11,29,05,14,3.20
2020,11,29,05,15,3.20
2020,11,29,05,16,3.20
2020,11,29,05,17,3.20
2020,11,29,05,18,3.20
2020,11,29,05,19,3.20
2020,11,29,05,20,3.20
2020,11,29,05,21,3.20
2020,11,29,05,22,3.20
2020,11,29,05,23,3.20
2020,11,29,05,24,3.20
2020,11,29,05,25,3.20
2020,11,29,05,26,3.20
2020,11,29,05,27,3.20
2020,11,29,05,28,3.20
2020,11,29,05,29,3.20
2020,11,29,08,18,2.30
2020,11,29,08,19,2.30
2020,11,29,08,20,2.30
2020,11,29,08,21,2.30
2020,11,29,08,22,2.30
2020,11,29,08,23,2.30
2020,11,29,08,24,2.30
2020,11,29,08,25,2.30
2020,11,29,08,26,2.30
2020,11,29,08,27,2.30
2020,11,29,08,28,2.20
2020,11,29,08,29,2.30
2020,11,29,08,30,2.30
2020,11,29,08,31,2.30
2020,11,29,08,32,2.30
2020,11,29,08,33,2.30
2020,11,29,08,34,2.30
2020,11,29,08,35,2.30
2020,11,29,08,36,2.40
2020,11,29,08,37,2.40
2020,11,29,08,38,2.40
2020,11,29,08,39,2.40
2020,11,29,08,40,2.40
2020,11,29,08,41,2.40
2020,11,29,08,42,2.40
2020,11,29,08,43,2.40
2020,11,29,08,44,2.40
2020,11,29,08,45,2.40
2020,11,29,08,46,2.50
2020,11,29,08,47,2.50
2020,11,29,08,48,2.50
2020,11,29,08,49,2.50
2020,11,29,08,50,2.50
2020,11,29,08,51,2.60
2020,11,29,08,52,2.60
2020,11,29,08,53,2.60
2020,11,29,08,54,2.60
2020,11,29,08,55,2.60
2020,11,29,08,56,2.60
2020,11,29,08,57,2.70
2020,11,29,08,58,2.70
2020,11,29,08,59,2.70
2020,11,29,09,00,2.70
2020,11,29,09,01,2.70
2020,11,29,09,02,2.70
2020,11,29,09,03,2.80
2020,11,29,09,04,2.80
2020,11,29,09,05,2.80
2020,11,29,09,06,2.80
2020,11,29,09,07,2.80
2020,11,29,09,08,2.80
2020,11,29,09,09,2.80
2020,11,29,09,10,2.80
2020,11,29,09,11,2.80
2020,11,29,09,12,2.90
2020,11,29,09,13,2.90
2020,11,29,09,14,2.90
2020,11,29,09,15,2.90
2020,11,29,09,16,2.90
2020,11,29,09,17,2.90
2020,11,29,09,18,3.00
2020,11,29,09,19,3.00
2020,11,29,09,20,3.10
2020,11,29,09,21,3.10
2020,11,29,09,22,3.10
2020,11,29,09,23,3.10
2020,11,29,09,24,3.10
2020,11,29,09,25,3.20
2020,11,29,09,26,3.20
2020,11,29,09,27,3.20
2020,11,29,09,28,3.30
2020,11,29,09,29,3.30
2020,11,29,09,30,3.30
2020,11,29,09,31,3.30
2020,11,29,09,32,3.40
2020,11,29,09,33,3.40
2020,11,29,09,34,3.40
2020,11,29,09,35,3.40
2020,11,29,09,36,3.50
2020,11,29,09,37,3.50
2020,11,29,09,38,3.50
2020,11,29,09,39,3.60
2020,11,29,09,40,3.60
2020,11,29,09,41,3.60
2020,11,29,09,42,3.60
2020,11,29,09,43,3.60
2020,11,29,09,44,3.70
2020,11,29,09,45,3.70
2020,11,29,09,46,3.70
2020,11,29,09,47,3.70
2020,11,29,09,48,3.70
2020,11,29,09,49,3.70
2020,11,29,09,50,3.70
2020,11,29,09,51,3.70
2020,11,29,09,52,3.80
2020,11,29,09,53,3.80
2020,11,29,09,54,3.80
2020,11,29,09,55,3.80
2020,11,29,09,56,3.80
2020,11,29,09,57,3.80
2020,11,29,09,58,3.80
2020,11,29,09,59,3.80
2020,11,29,10,00,3.80
2020,11,29,10,01,3.80
2020,11,29,10,02,3.90
2020,11,29,10,03,3.90
2020,11,29,10,04,3.90
2020,11,29,10,05,3.90
2020,11,29,10,06,3.90
2020,11,29,10,07,3.90
2020,11,29,10,08,4.00
2020,11,29,10,09,4.00
2020,11,29,10,10,4.00
2020,11,29,10,11,4.00
2020,11,29,10,12,4.10
2020,11,29,10,13,4.10
2020,11,29,10,14,4.10
2020,11,29,10,15,4.10
2020,11,29,10,16,4.10
2020,11,29,10,17,4.10
2020,11,29,10,18,4.10
2020,11,29,10,19,4.10
2020,11,29,10,20,4.10
2020,11,29,10,21,4.10
2020,11,29,10,22,4.10
2020,11,29,10,23,4.10
2020,11,29,10,24,4.10
2020,11,29,10,25,4.10
2020,11,29,10,26,4.20
2020,11,29,10,27,4.20
2020,11,29,10,28,4.20
2020,11,29,10,29,4.20
2020,11,29,10,30,4.20
2020,11,29,10,31,4.20
2020,11,29,10,32,4.20
2020,11,29,10,33,4.30
2020,11,29,10,34,4.30
2020,11,29,10,35,4.30
2020,11,29,10,36,4.30
2020,11,29,10,37,4.30
2020,11,29,10,38,4.30
2020,11,29,10,39,4.30
2020,11,29,10,40,4.30
2020,11,29,10,41,4.30
2020,11,29,10,42,4.30
2020,11,29,10,43,4.40
2020,11,29,10,44,4.40
2020,11,29,10,45,4.40
2020,11,29,10,46,4.40
2020,11,29,10,47,4.40
2020,11,29,10,48,4.40
2020,11,29,10,49,4.40
2020,11,29,10,50,4.40
2020,11,29,10,51,4.40
2020,11,29,10,52,4.40
2020,11,29,10,53,4.50
2020,11,29,10,54,4.50
2020,11,29,10,55,4.50
2020,11,29,10,56,4.50
2020,11,29,10,57,4.60
2020,11,29,10,58,4.60
2020,11,29,10,59,4.60
2020,11,29,11,00,4.60
2020,11,29,11,01,4.60
2020,11,29,11,02,4.60
2020,11,29,11,03,4.70
2020,11,29,11,04,4.70
2020,11,29,11,05,4.70
2020,11,29,11,06,4.70
2020,11,29,11,07,4.70
2020,11,29,11,08,4.70
2020,11,29,11,09,4.70
2020,11,29,11,10,4.80
2020,11,29,11,11,4.80
2020,11,29,11,12,4.80
2020,11,29,11,13,4.80
2020,11,29,11,14,4.80
2020,11,29,11,15,4.80
2020,11,29,11,16,4.90
2020,11,29,11,17,4.90
2020,11,29,11,18,4.90
2020,11,29,11,19,4.90
2020,11,29,11,20,4.90
2020,11,29,11,21,4.90
2020,11,29,11,22,4.90
2020,11,29,11,23,4.90
2020,11,29,11,24,4.90
2020,11,29,11,25,4.90
2020,11,29,11,26,5.00
2020,11,29,11,27,5.00
2020,11,29,11,28,5.00
2020,11,29,11,29,5.00
2020,11,29,11,30,5.00
2020,11,29,11,31,5.00
2020,11,29,11,32,5.00
2020,11,29,11,33,5.10
2020,11,29,11,34,5.10
2020,11,29,11,35,5.10
2020,11,29,11,36,5.10
2020,11,29,11,37,5.10
2020,11,29,11,38,5.10
2020,11,29,11,39,5.10
2020,11,29,11,40,5.10
2020,11,29,11,41,5.10
2020,11,29,11,42,5.10
2020,11,29,11,43,5.10
2020,11,29,11,44,5.10
2020,11,29,11,45,5.10
2020,11,29,11,46,5.20
2020,11,29,11,47,5.20
2020,11,29,11,48,5.20
2020,11,29,11,49,5.20
2020,11,29,11,50,5.20
2020,11,29,11,51,5.20
2020,11,29,11,52,5.20
2020,11,29,11,53,5.20
2020,11,29,11,54,5.20
2020,11,29,11,55,5.20
2020,11,29,11,56,5.20
2020,11,29,11,57,5.20
2020,11,29,11,58,5.20
2020,11,29,11,59,5.20
2020,11,29,12,00,5.10
2020,11,29,12,01,5.10
2020,11,29,12,02,5.10
2020,11,29,12,03,5.10
2020,11,29,12,04,5.10
2020,11,29,12,05,5.10
2020,11,29,12,06,5.10
2020,11,29,12,07,5.10
2020,11,29,12,08,5.10
2020,11,29,12,09,5.10
2020,11,29,12,10,5.10
2020,11,29,12,11,5.10
2020,11,29,12,12,5.10
2020,11,29,12,13,5.10
2020,11,29,12,14,5.10
2020,11,29,12,15,5.10
2020,11,29,12,16,5.10
2020,11,29,12,17,5.10
2020,11,29,12,18,5.10
2020,11,29,12,19,5.20
2020,11,29,12,20,5.10
2020,11,29,12,21,5.10
2020,11,29,12,22,5.10
2020,11,29,12,23,5.10
2020,11,29,12,24,5.20
2020,11,29,12,25,5.10
2020,11,29,12,26,5.10
2020,11,29,12,27,5.10
2020,11,29,12,28,5.10
2020,11,29,12,29,5.10
2020,11,29,12,30,5.10
2020,11,29,12,31,5.10
2020,11,29,12,32,5.10
2020,11,29,12,33,5.10
2020,11,29,12,34,5.10
2020,11,29,12,35,5.10
2020,11,29,12,36,5.10
2020,11,29,12,37,5.10
2020,11,29,12,38,5.10
2020,11,29,12,39,5.10
2020,11,29,12,40,5.10
2020,11,29,12,41,5.10
2020,11,29,12,42,5.10
2020,11,29,12,43,5.10
2020,11,29,12,44,5.10
2020,11,29,12,45,5.20
2020,11,29,12,46,5.20
2020,11,29,12,47,5.20
2020,11,29,12,48,5.20
2020,11,29,12,49,5.20
2020,11,29,12,50,5.20
2020,11,29,12,51,5.20
2020,11,29,12,52,5.20
2020,11,29,12,53,5.20
2020,11,29,12,54,5.20
2020,11,29,12,55,5.30
2020,11,29,12,56,5.30
2020,11,29,12,57,5.30
2020,11,29,12,58,5.30
2020,11,29,12,59,5.30
2020,11,29,13,00,5.30
2020,11,29,13,01,5.30
2020,11,29,13,02,5.30
2020,11,29,13,03,5.30
2020,11,29,13,04,5.30
2020,11,29,13,05,5.30
2020,11,29,13,06,5.30
2020,11,29,13,07,5.40
2020,11,29,13,08,5.40
2020,11,29,13,09,5.40
2020,11,29,13,10,5.40
2020,11,29,13,11,5.40
2020,11,29,13,12,5.40
2020,11,29,13,13,5.40
2020,11,29,13,14,5.40
2020,11,29,13,15,5.40
2020,11,29,13,16,5.40
2020,11,29,13,17,5.40
2020,11,29,13,18,5.40
2020,11,29,13,19,5.40
2020,11,29,13,20,5.40
2020,11,29,13,21,5.40
2020,11,29,13,22,5.40
2020,11,29,13,23,5.40
2020,11,29,13,24,5.40
2020,11,29,13,25,5.50
2020,11,29,13,26,5.50
2020,11,29,13,27,5.40
2020,11,29,13,28,5.40
2020,11,29,13,29,5.40
2020,11,29,13,30,5.50
2020,11,29,13,31,5.50
2020,11,29,13,32,5.50
2020,11,29,13,33,5.50
2020,11,29,13,34,5.50
2020,11,29,13,35,5.50
2020,11,29,13,36,5.50
2020,11,29,13,37,5.60
2020,11,29,13,38,5.60
2020,11,29,13,39,5.60
2020,11,29,13,40,5.60
2020,11,29,13,41,5.60
2020,11,29,13,42,5.60
2020,11,29,13,43,5.60
2020,11,29,13,44,5.60
2020,11,29,13,45,5.60
2020,11,29,13,46,5.60
2020,11,29,13,47,5.60
2020,11,29,13,48,5.60
2020,11,29,13,49,5.60
2020,11,29,13,50,5.60
2020,11,29,13,51,5.60
2020,11,29,13,52,5.60
2020,11,29,13,53,5.60
2020,11,29,13,54,5.60
2020,11,29,13,55,5.60
2020,11,29,13,56,5.60
2020,11,29,13,57,5.60
2020,11,29,13,58,5.60
2020,11,29,13,59,5.60
2020,11,29,14,00,5.60
2020,11,29,14,01,5.60
2020,11,29,14,02,5.60
2020,11,29,14,03,5.60
2020,11,29,14,04,5.60
2020,11,29,14,05,5.60
2020,11,29,14,06,5.60
2020,11,29,14,07,5.50
2020,11,29,14,08,5.50
2020,11,29,14,09,5.50
2020,11,29,14,10,5.50
2020,11,29,14,11,5.50
2020,11,29,14,12,5.40
2020,11,29,14,13,5.40
2020,11,29,14,14,5.40
2020,11,29,14,15,5.40
2020,11,29,14,16,5.40
2020,11,29,14,17,5.40
2020,11,29,14,18,5.40
2020,11,29,14,19,5.30
2020,11,29,14,20,5.30
2020,11,29,14,21,5.30
2020,11,29,14,22,5.30
2020,11,29,14,23,5.30
2020,11,29,14,24,5.30
2020,11,29,14,25,5.30
2020,11,29,14,26,5.30
2020,11,29,14,27,5.30
2020,11,29,14,28,5.30
2020,11,29,14,29,5.30
2020,11,29,14,30,5.30
2020,11,29,14,31,5.30
2020,11,29,14,32,5.30
2020,11,29,14,33,5.30
2020,11,29,14,34,5.30
2020,11,29,14,35,5.30
2020,11,29,14,36,5.30
2020,11,29,14,37,5.20
2020,11,29,14,38,5.20
2020,11,29,14,39,5.20
2020,11,29,14,40,5.20
2020,11,29,14,41,5.20
2020,11,29,14,42,5.20
2020,11,29,14,43,5.20
2020,11,29,14,44,5.20
2020,11,29,14,45,5.20
2020,11,29,14,46,5.20
2020,11,29,14,47,5.20
2020,11,29,14,48,5.20
2020,11,29,14,49,5.20
2020,11,29,14,50,5.20
2020,11,29,14,51,5.20
2020,11,29,14,52,5.20
2020,11,29,14,53,5.30
2020,11,29,14,54,5.30
2020,11,29,14,55,5.30
2020,11,29,14,56,5.30
2020,11,29,14,57,5.30
2020,11,29,14,58,5.30
2020,11,29,14,59,5.30
2020,11,29,15,00,5.30
2020,11,29,15,01,5.30
2020,11,29,15,02,5.30
2020,11,29,15,03,5.30
2020,11,29,15,04,5.30
2020,11,29,15,05,5.30
2020,11,29,15,06,5.30
2020,11,29,15,07,5.30
2020,11,29,15,08,5.30
2020,11,29,15,09,5.30
2020,11,29,15,10,5.30
2020,11,29,15,11,5.30
2020,11,29,15,12,5.30
2020,11,29,15,13,5.30
2020,11,29,15,14,5.30
2020,11,29,15,15,5.30
2020,11,29,15,16,5.30
2020,11,29,15,17,5.30
2020,11,29,15,18,5.30
2020,11,29,15,19,5.30
2020,11,29,15,20,5.30
2020,11,29,15,21,5.30
2020,11,29,15,22,5.30
2020,11,29,15,23,5.40
2020,11,29,15,24,5.40
2020,11,29,15,25,5.40
2020,11,29,15,26,5.40
2020,11,29,15,27,5.40
2020,11,29,15,28,5.40
2020,11,29,15,29,5.40
2020,11,29,15,30,5.40
2020,11,29,15,31,5.40
2020,11,29,15,32,5.40
2020,11,29,15,33,5.40
2020,11,29,15,34,5.30
2020,11,29,15,35,5.30
2020,11,29,15,36,5.30
2020,11,29,15,37,5.30
2020,11,29,15,38,5.30
2020,11,29,15,39,5.30
2020,11,29,15,40,5.30
2020,11,29,15,41,5.30
2020,11,29,15,42,5.30
2020,11,29,15,43,5.30
2020,11,29,15,44,5.30
2020,11,29,15,45,5.30
2020,11,29,15,46,5.40
2020,11,29,15,47,5.40
2020,11,29,15,48,5.40
2020,11,29,15,49,5.40
2020,11,29,15,50,5.40
2020,11,29,15,51,5.40
2020,11,29,15,52,5.40
2020,11,29,15,53,5.40
2020,11,29,15,54,5.40
2020,11,29,15,55,5.40
2020,11,29,15,56,5.40
2020,11,29,15,57,5.40
2020,11,29,15,58,5.40
2020,11,29,15,59,5.40
2020,11,29,16,00,5.40
2020,11,29,16,01,5.40
2020,11,29,16,02,5.40
2020,11,29,16,03,5.40
2020,11,29,16,04,5.50
2020,11,29,16,05,5.50
2020,11,29,16,06,5.50
2020,11,29,16,07,5.50
2020,11,29,16,08,5.50
2020,11,29,16,09,5.50
2020,11,29,16,10,5.50
2020,11,29,16,11,5.50
2020,11,29,16,12,5.60
2020,11,29,16,13,5.60
2020,11,29,16,14,5.60
2020,11,29,16,15,5.60
2020,11,29,16,16,5.60
2020,11,29,16,17,5.60
2020,11,29,16,18,5.60
2020,11,29,16,19,5.60
2020,11,29,16,20,5.60
2020,11,29,16,21,5.70
2020,11,29,16,22,5.70
2020,11,29,16,23,5.70
2020,11,29,16,24,5.70
2020,11,29,16,25,5.70
2020,11,29,16,26,5.70
2020,11,29,16,27,5.70
2020,11,29,16,28,5.70
2020,11,29,16,29,5.80
2020,11,29,16,30,5.80
2020,11,29,16,31,5.80
2020,11,29,16,32,5.80
2020,11,29,16,33,5.80
2020,11,29,16,34,5.80
2020,11,29,16,35,5.80
2020,11,29,16,36,5.90
2020,11,29,16,37,5.90
2020,11,29,16,38,5.90
2020,11,29,16,39,5.90
2020,11,29,16,40,5.90
2020,11,29,16,41,5.90
2020,11,29,16,42,5.90
2020,11,29,16,43,5.90
2020,11,29,16,44,5.90
2020,11,29,16,45,6.00
2020,11,29,16,46,6.00
2020,11,29,16,47,6.00
2020,11,29,16,48,6.00
2020,11,29,16,49,6.00
2020,11,29,16,50,6.00
2020,11,29,16,51,6.00
2020,11,29,16,52,6.00
2020,11,29,16,53,6.00
2020,11,29,16,54,6.00
2020,11,29,16,55,6.00
2020,11,29,16,56,6.00
2020,11,29,16,57,6.00
2020,11,29,16,58,6.00
2020,11,29,16,59,6.00
2020,11,29,17,00,6.00
2020,11,29,17,01,6.00
2020,11,29,17,02,6.00
2020,11,29,17,03,6.00
2020,11,29,17,04,6.00
2020,11,29,17,05,6.00
2020,11,29,17,06,6.00
2020,11,29,17,07,6.00
2020,11,29,17,08,6.00
2020,11,29,17,09,5.90
2020,11,29,17,10,5.90
2020,11,29,17,11,5.90
2020,11,29,17,12,5.90
2020,11,29,17,13,5.90
2020,11,29,17,14,5.90
2020,11,29,17,15,5.90
2020,11,29,17,16,5.90
2020,11,29,17,17,5.80
2020,11,29,17,18,5.80
2020,11,29,17,19,5.80
2020,11,29,17,20,5.80
2020,11,29,17,21,5.80
2020,11,29,17,22,5.80
2020,11,29,17,23,5.80
2020,11,29,17,24,5.80
2020,11,29,17,25,5.80
2020,11,29,17,26,5.80
2020,11,29,17,27,5.80
2020,11,29,17,28,5.80
2020,11,29,17,29,5.70
2020,11,29,17,30,5.70
2020,11,29,17,31,5.70
2020,11,29,17,32,5.70
2020,11,29,17,33,5.70
2020,11,29,17,34,5.70
2020,11,29,17,35,5.70
2020,11,29,17,36,5.70
2020,11,29,17,37,5.70
2020,11,29,17,38,5.70
2020,11,29,17,39,5.70
2020,11,29,17,40,5.70
2020,11,29,17,41,5.60
2020,11,29,17,42,5.60
2020,11,29,17,43,5.60
2020,11,29,17,44,5.60
2020,11,29,17,45,5.60
2020,11,29,17,46,5.60
2020,11,29,17,47,5.60
2020,11,29,17,48,5.60
2020,11,29,17,49,5.50
2020,11,29,17,50,5.50
2020,11,29,17,51,5.50
2020,11,29,17,52,5.50
2020,11,29,17,53,5.50
2020,11,29,17,54,5.50
2020,11,29,17,55,5.40
2020,11,29,17,56,5.40
2020,11,29,17,57,5.40
2020,11,29,17,58,5.40
2020,11,29,17,59,5.40
2020,11,29,18,00,5.40
2020,11,29,18,01,5.40
2020,11,29,18,02,5.40
2020,11,29,18,03,5.40
2020,11,29,18,04,5.40
2020,11,29,18,05,5.40
2020,11,29,18,06,5.30
2020,11,29,18,07,5.30
2020,11,29,18,08,5.30
2020,11,29,18,09,5.30
2020,11,29,18,10,5.30
2020,11,29,18,11,5.30
2020,11,29,18,12,5.30
2020,11,29,18,13,5.30
2020,11,29,18,14,5.30
2020,11,29,18,15,5.30
2020,11,29,18,16,5.30
2020,11,29,18,17,5.30
2020,11,29,18,18,5.30
2020,11,29,18,19,5.30
2020,11,29,18,20,5.30
2020,11,29,18,21,5.30
2020,11,29,18,22,5.30
2020,11,29,18,23,5.40
2020,11,29,18,24,5.40
2020,11,29,18,25,5.40
2020,11,29,18,26,5.40
2020,11,29,18,27,5.40
2020,11,29,18,28,5.30
2020,11,29,18,29,5.30
2020,11,29,18,30,5.30
2020,11,29,18,31,5.30
2020,11,29,18,32,5.30
2020,11,29,18,33,5.30
2020,11,29,18,34,5.20
2020,11,29,18,35,5.30
2020,11,29,18,36,5.20
2020,11,29,18,37,5.20
2020,11,29,18,38,5.20
2020,11,29,18,39,5.20
2020,11,29,18,40,5.20
2020,11,29,18,41,5.20
2020,11,29,18,42,5.20
2020,11,29,18,43,5.20
2020,11,29,18,44,5.20
2020,11,29,18,45,5.20
2020,11,29,18,46,5.20
2020,11,29,18,47,5.20
2020,11,29,18,48,5.20
2020,11,29,18,49,5.20
2020,11,29,18,50,5.20
2020,11,29,18,51,5.10
2020,11,29,18,52,5.10
2020,11,29,18,53,5.10
2020,11,29,18,54,5.10
2020,11,29,18,55,5.10
2020,11,29,18,56,5.10
2020,11,29,18,57,5.10
2020,11,29,18,58,5.10
2020,11,29,18,59,5.10
2020,11,29,19,00,5.10
2020,11,29,19,01,5.10
2020,11,29,19,02,5.10
2020,11,29,19,03,5.10
2020,11,29,19,04,5.10
2020,11,29,19,05,5.10
2020,11,29,19,06,5.10
2020,11,29,19,07,5.10
2020,11,29,19,08,5.00
2020,11,29,19,09,5.00
2020,11,29,19,10,5.00
2020,11,29,19,11,5.00
2020,11,29,19,12,5.00
2020,11,29,19,13,5.00
2020,11,29,19,14,5.00
2020,11,29,19,15,5.00
2020,11,29,19,16,5.00
2020,11,29,19,17,5.00
2020,11,29,19,18,5.00
2020,11,29,19,19,5.00
2020,11,29,19,20,5.00
2020,11,29,19,21,5.00
2020,11,29,19,22,4.90
2020,11,29,19,23,4.90
2020,11,29,19,24,4.90
2020,11,29,19,25,4.90
2020,11,29,19,26,4.90
2020,11,29,19,27,4.90
2020,11,29,19,28,4.90
2020,11,29,19,29,4.90
2020,11,29,19,30,4.90
2020,11,29,19,31,4.90
2020,11,29,19,32,4.90
2020,11,29,19,33,4.90
2020,11,29,19,34,4.90
2020,11,29,19,35,4.90
2020,11,29,19,36,4.90
2020,11,29,19,37,4.90
2020,11,29,19,38,4.90
2020,11,29,19,39,4.90
2020,11,29,19,40,4.90
2020,11,29,19,41,4.90
2020,11,29,19,42,4.90
2020,11,29,19,43,4.90
2020,11,29,19,44,4.90
2020,11,29,19,45,4.90
2020,11,29,19,46,4.90
2020,11,29,19,47,5.00
2020,11,29,19,48,5.00
2020,11,29,19,49,5.00
2020,11,29,19,50,5.00
2020,11,29,19,51,5.00
2020,11,29,19,52,5.00
2020,11,29,19,53,5.00
2020,11,29,19,54,5.00
2020,11,29,19,55,5.00
2020,11,29,19,56,5.00
2020,11,29,19,57,5.10
2020,11,29,19,58,5.10
2020,11,29,19,59,5.10
2020,11,29,20,00,5.10
2020,11,29,20,01,5.10
2020,11,29,20,02,5.10
2020,11,29,20,03,5.10
2020,11,29,20,04,5.10
2020,11,29,20,05,5.10
2020,11,29,20,06,5.10
2020,11,29,20,07,5.10
2020,11,29,20,08,5.10
2020,11,29,20,09,5.10
2020,11,29,20,10,5.10
2020,11,29,20,11,5.10
2020,11,29,20,12,5.10
2020,11,29,20,13,5.10
2020,11,29,20,14,5.10
2020,11,29,20,15,5.10
2020,11,29,20,16,5.10
2020,11,29,20,17,5.20
2020,11,29,20,18,5.20
2020,11,29,20,19,5.20
2020,11,29,20,20,5.20
2020,11,29,20,21,5.20
2020,11,29,20,22,5.20
2020,11,29,20,23,5.20
2020,11,29,20,24,5.20
2020,11,29,20,25,5.20
2020,11,29,20,26,5.20
2020,11,29,20,27,5.20
2020,11,29,20,28,5.20
2020,11,29,20,29,5.20
2020,11,29,20,30,5.20
2020,11,29,20,31,5.20
2020,11,29,20,32,5.20
2020,11,29,20,33,5.20
2020,11,29,20,34,5.30
2020,11,29,20,35,5.30
2020,11,29,20,36,5.30
2020,11,29,20,37,5.30
2020,11,29,20,38,5.30
2020,11,29,20,39,5.30
2020,11,29,20,40,5.40
2020,11,29,20,41,5.40
2020,11,29,20,42,5.40
2020,11,29,20,43,5.50
2020,11,29,20,44,5.50
2020,11,29,20,45,5.50
2020,11,29,20,46,5.60
2020,11,29,20,47,5.60
2020,11,29,20,48,5.60
2020,11,29,20,49,5.60
2020,11,29,20,50,5.60
2020,11,29,20,51,5.60
2020,11,29,20,52,5.70
2020,11,29,20,53,5.70
2020,11,29,20,54,5.70